Location: Crescent
(42.8242°N, 73.7329°W)
Time: 19:09:45
(UTC+00:00)

Transit 4A - Pass Details

Date: 21 February 2026
Orbit: 864 x 977 km, 66.8° (Epoch: 10 March)

Event Time Altitude Azimuth Distance (km) Brightness Sun altitude
Rises 07:43:59 0° 205° (SSW) 3,442 - -43.3°
Reaches altitude 10° 07:46:25 10° 204° (SSW) 2,517 - -42.9°
Maximum altitude 07:52:14 80° 119° (ESE) 907 - -42.0°
Exits shadow 07:56:19 22° 34° (NE) 1,887 9.9 -41.3°
Drops below altitude 10° 07:58:16 10° 33° (NNE) 2,600 10.8 -41.0°
Sets 08:00:49 0° 32° (NNE) 3,563 11.6 -40.6°
